Home   Weather   Horten   Past weeks

Flag for Norway Past Weather in Horten, Norway — Yesterday and Last 2 Weeks

Now
59 °F

Passing clouds.


Feels Like: 53 °F
Forecast: 53 / 62 °F
Wind: 46 mph from South

Location: Oseberg

Current Time: Sep 25, 2016 at 4:15:06 AM

Latest Report: Sep 25, 2016 at 2:50 AM


Visibility: 5 mi

Pressure: 29.71 "Hg

Humidity: 94%

Dew Point: 57 °F

Location of HortenLocation

Past Weather in Horten — Graph

°F

Horten Temperature Yesterday

Maximum temperature yesterday: 59 °F (at 11:50 AM)
Minimum temperature yesterday: 55 °F (at 12:50 AM)
Average temperature yesterday: 57 °F

High & Low Weather Summary for the Past Weeks

 TemperatureHumidityPressure
High66 °F (Sep 16, 6:20 AM)100% (Sep 10, 3:50 AM)30.18 "Hg (Sep 10, 3:50 AM)
Low52 °F (Sep 23, 10:01 AM)63% (Sep 23, 1:50 PM)29.53 "Hg (Sep 10, 2:50 AM)
Average57 °F91%29.98 "Hg
* Reported Sep 10 2:50 AM — Sep 25 2:50 AM, Horten, Weather by CustomWeather, © 2016

Note: Actual official high and low records may vary slightly from our data, if they occured in-between our weather recording intervals... More about our weather records

Advertising

Horten Weather History for the Previous 24 Hours

Scroll right to see more
 ConditionsComfort  
Time TempWeatherWind HumidityBarometerVisibility
2:50 AM
Sun, Sep 25
59 °FPassing clouds.46 mph94%29.71 "Hg5 mi
1:50 AM59 °FPassing clouds.48 mph94%29.71 "Hg5 mi
12:50 AM59 °FPartly cloudy.47 mph94%29.71 "Hg4 mi
11:50 PM
Sat, Sep 24
59 °FPassing clouds.46 mph88%29.71 "Hg5 mi
10:50 PM57 °FPartly cloudy.41 mph94%29.74 "Hg5 mi
9:50 PM57 °FPassing clouds.41 mph94%29.74 "Hg5 mi
8:50 PM57 °FPassing clouds.41 mph94%29.74 "Hg5 mi
7:50 PM57 °FPartly cloudy.44 mph94%29.74 "Hg4 mi
7:20 PM59 °FPartly cloudy.44 mph88%29.74 "Hg5 mi
6:50 PM57 °FBroken clouds.44 mph94%29.74 "Hg5 mi
5:50 PM57 °FDrizzle. Broken clouds.45 mph94%29.74 "Hg5 mi
4:50 PM57 °FPartly sunny.45 mph94%29.74 "Hg5 mi
4:20 PM57 °FPartly sunny.47 mph88%29.74 "Hg5 mi
3:50 PM57 °FBroken clouds.48 mph88%29.74 "Hg4 mi
3:20 PM57 °FPartly sunny.48 mph88%29.74 "Hg6 mi
2:50 PM57 °FPartly sunny.48 mph88%29.74 "HgN/A
1:50 PM59 °FPartly sunny.50 mph82%29.77 "Hg6 mi
1:20 PM57 °FBroken clouds.50 mph88%29.77 "Hg6 mi
12:50 PM59 °FScattered clouds.48 mph82%29.77 "Hg6 mi
11:50 AM59 °FPartly sunny.46 mph82%29.77 "HgN/A
10:50 AM57 °FPartly sunny.44 mph88%29.80 "HgN/A
9:50 AM57 °FPartly sunny.43 mph88%29.80 "HgN/A
9:20 AM57 °FBroken clouds.41 mph94%29.80 "HgN/A
8:50 AM57 °FBroken clouds.40 mph94%29.80 "Hg6 mi
8:20 AM57 °FSprinkles. Partly sunny.40 mph94%29.80 "HgN/A
7:50 AM57 °FSprinkles. Partly sunny.44 mph94%29.80 "Hg5 mi
6:50 AM55 °FRain showers. Passing clouds.35 mph94%29.83 "Hg5 mi
6:20 AM55 °FSprinkles. Passing clouds.41 mph94%29.83 "HgN/A
5:50 AM55 °FPassing clouds.39 mph94%29.86 "HgN/A
4:50 AM55 °FPassing clouds.37 mph88%29.86 "HgN/A
Weather by CustomWeather, © 2016

See weather overviewHow to use our weather pages